Location: Feigenhofen
(48.4939°N, 10.7793°E)
Time: 22:21:12
(UTC+00:00)

Cosmos 1610 Rocket - Pass Details

Date: 26 May 2022
Orbit: 951 x 1003 km, 82.9° (Epoch: 24 June)

Event Time Altitude Azimuth Distance (km) Brightness Sun altitude
Rises 01:38:29 0° 349° (N) 3,660 8.2 -13.3°
Reaches altitude 10° 01:41:00 10° 349° (N) 2,703 7.5 -13.0°
Maximum altitude 01:47:10 80° 264° (W) 974 4.4 -12.4°
Drops below altitude 10° 01:53:16 10° 178° (S) 2,671 6.3 -11.8°
Enters shadow 01:54:09 - 178° (S) 3,002 6.6 -11.7°
